GEFSGL_500_meanwind_000.txt.gz
Wind_Speed
30 32 35 39 40 37 35 35 34 33 34 36 35 34 33 34 33 33 33 34 35 36 38 38 37 35 34 32 29 29 28 24 21 17 17 19 18 21 24 22 22 20 19
40 38 39 41 43 44 39 37 35 35 34 34 33 32 31 30 29 28 29 30 31 32 31 31 29 28 30 29 29 29 27 26 23 23 20 21 22 24 22 21 22 23 22
50 46 43 46 46 43 41 39 37 36 35 31 31 30 28 27 24 23 24 24 24 26 25 25 24 25 25 24 26 23 22 20 19 21 23 20 18 17 17 18 18 18 20
56 54 53 51 49 44 43 42 41 39 37 31 29 29 29 28 24 22 21 19 20 21 23 22 23 24 18 22 20 17 19 15 16 18 16 13 14 14 15 15 17 21 24
65 64 64 60 53 53 52 51 48 42 37 33 27 28 27 26 21 20 19 16 16 21 23 21 25 26 21 15 15 14 12 10 11 14 15 13 14 14 15 16 17 18 20
73 72 70 66 59 57 56 52 48 43 37 34 28 28 25 24 21 20 18 15 17 21 20 20 21 21 23 19 15 11 11 14 16 16 14 13 13 14 14 14 15 16 18
70 71 73 73 70 64 58 50 45 42 38 35 30 28 25 24 21 20 19 13 15 18 21 21 20 19 18 16 12 12 13 14 14 14 13 11 10 10 11 13 15 17 18
74 78 78 72 67 63 58 48 45 43 40 36 30 28 27 26 22 21 22 16 15 18 19 18 17 16 16 13 11 13 14 14 12 11 10 8 8 9 10 11 13 15 18
85 81 78 75 70 63 58 51 48 46 43 39 32 30 28 26 23 22 22 18 19 21 19 16 15 15 15 14 14 14 13 12 12 11 9 9 8 9 10 12 14 15 18
77 72 69 64 60 55 52 49 52 49 44 41 35 31 30 28 25 24 22 20 22 22 21 17 16 16 15 14 14 13 13 14 13 11 11 9 9 9 9 11 12 13 14
53 46 45 42 38 38 42 47 51 51 44 40 39 34 31 29 28 26 23 21 20 20 18 17 16 18 18 17 15 14 14 14 14 13 12 9 8 6 5 7 10 13 14
40 37 37 36 36 38 37 37 45 52 49 47 40 39 34 30 28 27 24 21 18 19 18 17 18 21 21 16 14 14 15 15 15 14 11 10 7 4 5 7 9 11 13
38 39 40 43 43 39 39 39 41 53 52 45 41 43 36 29 27 26 23 21 20 19 19 20 20 21 19 15 16 16 16 16 15 13 11 8 6 6 7 8 7 9 13
42 42 42 41 41 40 35 33 39 54 55 38 38 43 34 29 26 24 20 19 21 20 20 20 21 21 19 14 15 16 16 16 16 13 9 8 7 7 8 7 6 7 12
43 43 41 39 38 35 33 36 42 58 64 48 44 39 31 27 25 24 21 21 24 24 21 19 18 17 17 17 17 16 15 15 14 11 10 9 9 8 8 9 6 7 12
43 39 38 36 35 33 35 42 44 61 69 54 48 37 30 30 29 26 25 26 28 25 21 17 15 16 16 16 15 14 13 13 13 13 12 11 10 8 9 9 8 9 13
45 37 33 31 31 31 33 30 39 60 55 50 48 40 35 31 29 27 26 27 28 25 22 18 17 18 17 15 14 13 13 14 15 14 13 11 9 8 8 8 8 11 12
35 31 27 26 26 23 21 28 46 44 48 53 44 41 38 33 31 29 28 27 26 24 22 20 18 18 17 15 14 14 15 15 15 15 14 12 11 10 10 10 10 12 13
25 23 21 22 19 17 26 47 44 37 54 49 45 41 36 33 31 28 27 25 23 22 21 20 19 19 18 16 15 15 15 15 15 16 15 15 14 13 13 14 16 17 17
19 21 21 21 19 21 38 42 31 43 47 45 43 37 33 30 28 25 23 22 21 20 19 18 17 16 16 15 15 16 15 15 17 18 18 18 18 19 19 20 22 24 25
16 19 22 22 19 29 42 35 37 42 39 42 40 34 32 30 28 26 24 22 19 18 16 14 13 14 14 14 14 15 17 17 18 20 20 19 20 21 22 23 25 25 25
20 22 24 22 25 40 43 40 39 37 35 37 35 32 30 31 30 28 25 21 18 16 14 13 12 12 13 14 14 15 17 19 20 20 20 20 21 23 25 26 24 22 22
18 23 25 28 38 48 40 38 38 35 35 34 33 30 28 30 30 29 25 21 18 16 14 13 13 13 14 16 16 17 19 21 21 20 19 19 20 23 26 27 25 23 23
16 24 33 40 51 54 41 39 36 31 31 35 34 30 29 30 29 27 24 21 19 17 15 14 15 16 17 18 18 19 20 20 20 19 20 21 21 23 26 26 25 24 24
26 37 44 49 55 48 45 47 42 36 34 32 28 26 27 27 25 23 21 20 18 18 16 16 17 17 17 18 18 18 18 18 17 18 20 21 23 24 24 23 23 23 23
41 44 46 49 47 46 47 45 38 36 34 28 24 22 20 19 19 19 19 19 18 17 16 17 16 15 15 16 16 16 15 14 15 17 19 20 22 23 23 22 22 23 24

GEFSGL_500_meanwind_006.txt.gz
Wind_Speed
51 50 49 48 46 42 40 38 35 31 29 29 28 27 27 28 30 30 33 33 31 29 27 26 27 27 29 31 33 34 35 35 36 36 38 38 37 35 33 32 31 28 27
56 56 56 55 53 49 46 44 40 36 34 35 35 33 31 31 31 30 31 33 32 29 26 25 24 25 26 28 30 32 33 34 35 37 39 38 36 33 32 31 30 29 28
61 61 61 59 57 55 52 49 45 42 40 39 39 37 34 32 31 30 31 32 31 29 26 24 21 20 21 23 25 27 29 31 33 36 37 36 33 29 28 28 27 27 26
69 67 66 65 63 62 60 56 49 45 44 44 43 40 36 34 32 30 30 31 30 28 25 22 19 16 16 17 18 20 24 28 31 34 34 34 31 28 26 26 26 25 23
73 75 75 75 75 72 67 61 56 55 52 50 47 43 40 38 35 32 30 30 29 27 24 21 17 13 12 13 14 15 19 23 27 30 32 31 28 27 26 24 22 21 18
75 75 72 72 72 70 69 69 70 68 63 56 49 45 43 42 38 35 32 30 29 27 24 21 18 14 12 12 13 14 16 17 20 24 27 27 26 25 23 21 19 18 16
89 86 83 80 78 79 80 80 81 77 69 61 53 48 46 43 41 38 34 31 30 28 25 22 19 15 14 13 14 16 19 21 23 24 25 25 24 22 20 19 18 17 15
76 78 81 84 86 86 86 84 81 76 69 64 58 51 47 45 44 41 38 34 31 29 26 23 19 16 14 15 16 18 20 24 27 26 24 22 20 19 19 18 17 15 14
46 49 52 56 61 66 69 70 69 68 65 61 58 52 49 48 46 43 40 37 34 32 28 24 21 17 14 15 17 18 20 22 25 25 23 21 20 19 18 17 15 13 13
39 40 39 38 38 42 46 51 55 57 57 56 53 49 48 47 46 43 41 39 36 33 30 26 23 19 16 16 17 18 20 22 23 23 22 21 20 19 16 14 13 12 11
44 43 41 37 34 34 36 39 44 49 53 54 52 49 46 45 45 43 42 39 36 33 31 28 24 21 19 19 20 20 21 22 23 22 21 20 18 16 14 13 12 10 8
48 46 44 39 34 32 31 30 31 34 40 47 52 55 51 45 45 45 42 39 36 33 31 29 25 23 23 22 23 24 24 24 23 22 20 19 17 15 15 14 11 9 8
52 50 47 44 38 33 29 26 25 26 27 33 44 55 54 49 48 48 44 39 35 32 30 28 25 24 24 24 26 26 25 23 22 21 19 17 16 16 15 14 11 10 10
55 52 49 46 43 37 32 28 26 26 27 28 34 47 57 51 48 48 44 40 35 31 29 27 25 24 24 25 25 24 22 19 19 19 18 17 16 14 14 13 13 13 13
51 48 46 45 43 40 36 31 29 30 30 31 33 40 50 50 44 44 40 37 32 30 28 26 24 24 24 23 23 20 18 19 19 18 17 15 13 12 13 14 14 14 15
45 41 40 40 42 41 37 34 32 31 33 32 32 34 40 43 42 41 38 35 31 29 27 26 25 25 24 23 21 19 20 19 18 16 15 14 13 13 13 15 16 17 17
37 33 32 34 38 39 38 35 32 31 32 32 32 32 33 36 37 40 38 35 31 28 27 27 27 27 26 25 22 21 20 18 16 16 16 16 15 15 15 16 18 19 20
27 22 23 29 34 36 36 34 32 31 31 31 31 31 31 32 34 38 39 35 31 28 28 29 28 28 28 26 24 23 20 18 17 17 17 17 17 16 17 19 21 22 23
17 13 16 24 29 31 32 33 32 31 31 31 31 32 30 31 33 38 38 34 30 29 31 30 28 27 27 26 25 22 20 18 17 18 18 17 17 17 19 21 23 24 25
9 7 13 19 23 27 29 30 31 31 32 33 34 35 35 34 36 38 37 33 31 32 34 32 28 26 26 25 23 21 19 18 18 18 18 18 18 18 20 21 24 25 26
1 5 12 17 21 24 25 26 27 29 32 35 36 38 38 37 37 36 33 32 32 33 33 31 28 26 25 24 22 21 20 19 19 19 19 19 19 19 20 21 22 22 23
6 9 13 17 20 21 22 23 24 26 29 33 38 41 41 38 37 34 32 32 32 32 32 29 27 25 24 23 22 21 20 20 19 19 19 19 18 19 19 19 19 19 21
12 14 16 18 20 20 22 24 26 29 32 36 39 42 41 39 36 35 34 33 32 31 30 27 25 23 22 22 21 20 19 19 18 18 18 19 19 18 18 18 18 19 21
17 19 21 23 25 28 31 32 33 36 39 42 42 41 39 36 35 35 34 33 31 29 28 25 24 22 21 19 18 17 17 17 17 17 18 18 18 18 18 18 19 20 21
25 27 30 32 34 35 37 39 40 41 42 41 39 36 33 32 32 32 32 31 29 27 26 24 22 20 18 16 15 15 14 14 15 16 17 17 17 17 18 19 19 20 21
34 36 37 37 38 38 39 39 40 39 37 36 34 31 31 30 30 29 29 28 26 24 23 21 18 16 14 13 13 13 13 13 14 15 15 16 16 17 18 19 19 20 22

GEFSGL_500_meanwind_012.txt.gz
Wind_Speed
61 62 62 62 62 62 61 60 59 57 54 51 48 45 43 41 40 38 35 32 30 30 30 29 27 25 25 26 25 24 23 24 25 28 29 30 30 29 29 28 27 27 27
64 65 66 67 66 66 66 66 65 63 60 57 54 53 50 46 43 41 39 35 32 30 29 28 27 25 25 25 24 22 22 22 24 26 28 29 29 30 29 29 29 29 29
68 69 69 70 70 70 69 68 68 67 65 62 58 56 54 52 48 45 43 39 35 32 30 28 26 25 24 24 23 22 21 21 22 24 26 28 30 30 30 30 31 31 30
77 77 77 77 77 76 75 73 72 71 69 67 64 61 58 56 53 49 46 42 37 34 31 28 26 25 24 23 22 21 20 19 20 22 26 29 30 30 30 31 31 31 30
75 76 78 80 81 82 82 81 79 76 75 72 70 67 65 61 57 53 51 47 42 37 33 29 27 25 24 23 21 21 20 18 19 21 25 28 30 31 31 30 30 30 29
52 53 55 58 62 68 72 77 80 81 81 79 76 72 68 66 63 59 56 52 47 42 36 33 30 27 25 24 22 21 20 19 19 19 21 24 28 31 32 31 30 29 28
35 33 32 32 33 36 41 48 56 64 71 75 75 72 69 65 63 61 58 55 52 48 42 37 33 30 27 25 23 22 20 18 17 17 18 20 23 27 29 28 27 27 26
40 39 38 37 34 33 32 31 31 34 42 50 57 63 65 65 63 59 55 54 52 49 44 39 35 32 30 27 24 22 20 18 17 17 17 18 19 20 22 24 25 23 22
45 45 45 43 41 39 36 33 32 31 30 31 35 43 51 57 61 61 58 55 52 49 45 40 37 35 32 29 27 24 21 20 19 19 18 18 19 21 23 24 23 23 20
48 48 48 47 45 43 40 37 35 34 32 30 30 32 36 45 53 58 59 58 56 51 46 42 39 36 34 32 30 26 23 21 20 20 20 19 20 21 22 23 21 19 17
50 49 48 47 46 44 42 40 38 37 35 33 32 31 32 36 44 53 57 58 56 53 49 45 41 39 36 35 33 29 26 23 21 20 20 19 18 19 21 21 19 17 15
51 49 48 47 46 44 43 41 41 39 37 35 33 32 32 32 36 45 53 55 52 51 50 48 45 42 40 37 35 32 28 25 22 20 19 18 17 18 20 19 17 15 14
51 49 47 46 44 43 42 42 41 40 38 36 34 33 32 31 33 39 49 54 51 49 49 48 46 44 42 39 37 34 30 27 24 21 19 18 18 18 18 17 16 15 15
49 47 45 43 42 40 40 40 39 39 38 36 34 33 32 30 31 35 46 54 52 48 47 47 46 46 43 40 37 34 31 27 24 22 20 19 18 18 18 17 17 16 16
43 41 39 37 36 36 36 35 35 35 34 33 31 31 30 28 27 31 41 53 54 48 47 46 45 43 40 38 36 33 30 27 25 23 21 20 19 19 19 18 18 18 17
34 33 32 31 31 32 32 31 31 31 31 30 30 29 27 24 23 26 35 48 54 48 46 46 43 39 37 35 33 31 29 27 25 23 22 21 21 21 20 19 19 18 17
27 27 27 27 27 27 26 25 25 26 27 28 27 25 23 20 18 19 28 42 50 47 45 43 41 38 35 33 31 29 27 25 24 23 23 23 23 22 20 19 19 18 17
21 21 21 20 20 19 18 19 20 21 23 22 22 21 19 17 16 17 24 36 43 44 43 41 39 36 33 31 29 27 26 25 25 24 25 24 23 22 20 19 18 17 16
17 15 13 10 8 9 12 16 19 21 20 18 18 17 16 16 18 21 25 32 39 39 38 39 37 34 31 30 28 28 27 27 26 25 24 23 22 21 20 18 17 15 15
17 13 9 5 7 13 18 21 22 20 17 16 15 16 18 19 22 26 29 33 35 34 35 35 33 31 30 30 29 29 28 27 26 25 23 22 21 21 19 17 16 15 15
21 19 18 18 19 21 22 22 21 19 17 16 16 18 20 22 27 30 33 34 33 32 31 29 29 30 31 31 30 29 28 27 25 22 21 20 20 19 17 16 15 15 16
22 21 21 21 22 22 21 20 19 18 17 18 19 21 22 26 32 35 35 33 32 30 27 26 27 29 30 30 29 27 25 23 21 19 18 18 18 17 16 15 16 17 18
22 20 19 18 18 19 19 19 18 18 19 20 21 22 25 30 34 35 33 30 28 27 26 25 26 27 28 28 26 24 22 21 19 18 17 17 16 16 16 16 17 18 19
26 21 18 16 16 16 17 18 19 21 22 22 23 26 29 33 34 34 31 28 27 26 25 25 25 24 24 24 22 21 20 18 17 16 16 16 16 16 17 17 18 19 19
33 29 25 20 17 17 19 21 22 23 23 24 25 28 30 32 32 30 28 26 26 26 25 24 23 22 21 20 19 18 16 16 15 15 16 17 17 18 18 19 19 19 20
37 36 33 30 27 25 25 25 25 25 26 26 27 28 30 30 29 27 25 25 25 24 23 22 20 19 17 16 15 14 14 14 14 15 16 17 18 19 19 20 20 20 20

GEFSGL_500_meanwind_018.txt.gz
Wind_Speed
65 63 62 61 61 61 61 60 59 59 58 59 59 59 58 57 54 51 48 47 44 42 39 37 35 33 32 31 29 27 25 23 22 24 23 21 22 24 27 27 27 24 23
71 69 67 66 65 65 65 65 65 64 63 63 63 63 63 62 60 58 54 52 50 47 44 41 38 36 34 32 30 28 26 24 22 22 22 20 20 23 26 26 26 25 25
66 63 60 57 56 57 58 61 64 67 68 69 68 67 66 65 63 61 59 57 55 52 49 46 42 39 36 34 31 29 26 24 22 21 21 20 19 21 24 26 27 26 25
57 54 50 47 44 42 43 45 50 56 63 68 71 72 71 70 67 65 62 60 58 55 53 50 46 43 39 36 33 30 27 24 22 21 20 18 17 19 22 24 25 25 25
52 50 46 43 41 38 36 36 37 40 45 52 60 67 72 74 73 70 66 62 59 57 54 52 49 46 42 38 35 31 29 26 23 20 19 17 15 16 18 21 22 23 23
53 50 48 45 43 41 38 37 35 35 35 37 40 47 56 65 72 74 72 68 62 58 55 53 51 48 45 41 37 34 31 27 24 21 18 16 14 14 16 19 21 22 22
56 54 52 50 48 45 43 40 38 36 34 34 33 34 37 45 55 66 72 72 68 62 57 54 52 49 47 43 39 36 32 29 25 21 18 16 14 13 15 17 18 20 21
58 56 54 53 51 49 47 44 42 40 37 36 35 34 34 34 38 46 59 68 70 67 61 56 53 51 48 45 41 38 34 30 26 22 19 16 14 13 14 16 17 18 19
57 55 53 52 52 51 48 46 44 43 41 39 37 36 33 32 32 34 40 53 63 66 64 59 55 52 50 47 44 40 37 32 27 23 20 17 15 14 14 15 16 16 18
52 50 48 48 50 50 48 46 45 43 41 40 39 37 35 33 30 29 30 38 50 59 62 61 57 53 51 48 46 43 39 34 29 25 22 18 16 15 15 15 15 16 16
45 43 42 43 45 46 46 44 43 42 41 39 38 37 35 33 31 28 26 29 39 50 57 58 56 53 50 48 47 45 41 36 31 26 22 19 17 16 16 15 15 14 15
40 37 36 37 39 40 41 40 39 39 39 38 36 35 34 33 31 28 25 25 31 41 51 53 52 51 49 48 47 46 43 38 33 28 24 20 18 16 15 14 14 14 14
36 32 29 29 30 32 34 35 35 35 34 34 34 33 33 32 31 28 25 23 25 34 45 51 51 49 49 48 47 45 42 38 34 29 25 21 19 16 15 14 15 15 16
33 28 24 22 22 24 26 28 29 30 30 30 31 31 32 31 30 28 26 23 23 31 41 49 48 47 46 47 47 45 42 38 34 30 26 22 19 17 16 16 16 17 18
33 27 21 18 15 16 18 20 23 24 26 28 29 30 31 31 30 28 26 24 24 29 38 47 48 47 46 46 46 44 41 38 34 30 26 23 20 19 18 18 18 18 18
34 28 20 15 10 9 10 14 17 19 22 24 26 28 29 30 30 29 28 26 25 28 35 43 48 47 47 46 45 43 40 37 33 30 27 24 22 21 20 20 20 20 21
36 30 22 15 9 5 5 8 12 15 17 20 23 25 26 27 28 27 27 27 27 28 35 42 46 48 46 46 45 43 40 36 33 31 28 25 24 23 22 22 22 22 23
37 33 27 19 12 5 2 5 8 12 14 17 19 21 23 25 25 25 25 26 27 29 33 42 44 46 45 44 43 41 39 36 34 31 28 26 25 24 24 24 25 25 25
36 34 31 26 21 15 11 8 8 9 12 14 16 18 20 22 22 23 23 24 26 27 31 40 42 43 44 43 41 39 37 35 33 31 29 27 26 26 26 27 27 26 25
34 33 31 29 26 22 19 16 14 12 11 13 14 16 18 20 21 22 21 22 23 25 30 36 39 40 40 39 39 37 36 34 32 30 29 28 27 28 28 28 27 26 25
32 31 31 29 27 24 21 19 17 16 14 13 13 14 17 19 20 21 21 22 23 26 30 34 35 37 37 37 36 35 33 32 31 30 29 28 28 29 29 28 27 25 25
31 30 29 28 26 25 23 21 19 17 15 13 13 14 15 17 20 21 23 26 28 29 30 30 32 34 35 34 34 33 32 31 30 30 29 29 29 29 28 26 25 25 25
31 29 28 26 25 24 22 20 18 17 16 16 16 17 19 21 23 25 28 30 30 29 29 29 30 31 33 33 33 32 30 29 29 28 28 28 28 27 26 25 25 25 25
32 29 28 27 25 24 23 22 21 21 21 21 22 24 24 25 26 28 31 32 30 29 28 27 28 29 30 30 30 30 29 29 28 27 27 26 26 25 25 24 24 24 24
33 30 29 27 26 25 24 24 24 25 26 26 27 28 29 30 31 31 31 30 29 28 28 27 27 27 27 28 27 27 27 26 25 24 23 23 22 22 23 23 23 24 24
31 29 28 28 27 26 25 24 25 26 27 27 28 28 28 29 30 30 29 28 28 28 28 27 26 26 27 26 26 25 24 23 22 22 21 21 21 21 21 22 22 23 23

GEFSGL_500_meanwind_024.txt.gz
Wind_Speed
45 44 44 44 46 47 48 48 50 52 54 57 60 62 64 65 65 64 63 61 58 56 54 52 49 48 46 43 40 37 34 32 31 31 29 27 25 24 24 23 22 22 23
50 50 51 51 52 52 51 51 51 53 55 57 60 64 66 68 69 69 69 68 65 63 60 57 54 52 50 46 43 39 36 33 32 31 30 28 26 24 23 23 22 21 22
56 57 57 57 56 55 55 54 53 52 53 54 57 60 65 69 72 73 73 72 71 69 66 63 59 57 54 50 46 42 39 35 33 31 30 28 26 24 23 22 21 21 21
60 62 62 62 60 59 57 55 54 53 52 52 53 56 59 64 69 73 76 76 75 74 71 68 65 61 58 55 51 47 42 38 34 32 30 29 26 24 23 22 21 20 21
63 64 65 64 63 61 58 56 55 53 51 50 51 51 53 56 60 65 72 76 77 76 74 71 69 65 61 59 56 51 47 42 37 34 32 29 26 24 23 21 21 20 21
65 65 64 63 62 60 58 55 53 51 49 49 48 48 48 49 51 54 59 65 72 75 75 74 72 67 64 60 57 55 51 46 40 37 33 30 28 25 23 21 20 20 21
65 63 62 61 59 57 54 51 48 46 47 48 47 46 46 45 45 45 46 51 57 65 70 73 73 70 66 61 58 56 53 49 44 39 35 32 29 26 24 21 20 19 20
62 60 59 58 55 52 48 45 42 42 44 46 46 45 44 43 41 39 39 41 43 49 56 62 67 68 66 63 59 57 53 50 46 42 37 34 31 28 25 22 20 19 20
59 57 55 54 51 46 43 40 38 37 38 43 45 44 42 41 40 38 37 35 36 38 43 50 57 62 64 63 59 56 53 50 47 44 40 36 32 29 26 22 20 19 20
56 55 54 51 47 41 37 34 32 32 33 37 41 42 42 40 40 39 38 35 34 33 36 41 47 53 58 60 59 56 53 50 47 44 41 37 33 29 26 23 21 20 20
55 54 51 47 42 37 32 28 25 26 29 32 36 39 41 40 39 39 38 36 34 33 33 35 40 45 51 56 57 57 54 51 49 45 42 38 35 30 27 24 22 21 21
54 52 49 44 38 33 28 22 18 20 24 28 32 36 38 38 37 37 37 36 35 33 32 32 35 40 45 51 55 55 54 52 48 46 42 39 35 31 28 26 24 23 22
52 51 47 41 36 30 24 17 13 15 19 25 28 31 33 35 35 35 35 34 33 32 30 30 31 35 42 48 52 54 53 50 48 45 42 39 36 33 30 28 25 23 23
51 49 44 39 34 28 21 15 9 8 15 22 26 28 29 31 33 33 32 32 31 31 29 28 29 33 39 46 51 53 52 49 47 44 42 40 36 33 30 28 26 24 23
50 47 43 38 34 28 21 15 9 4 7 15 20 24 26 27 29 30 30 30 29 29 28 27 28 31 39 46 50 50 50 49 46 45 42 39 36 33 30 28 26 25 24
47 45 42 38 34 29 23 17 10 4 3 9 15 20 22 24 26 27 27 28 27 26 25 25 27 32 41 48 50 49 48 47 45 44 42 39 36 33 31 28 26 25 24
46 44 41 37 34 30 25 18 12 6 2 5 10 15 18 20 22 24 25 25 24 24 22 23 27 36 43 49 50 49 47 45 44 43 41 39 36 33 31 29 27 26 25
45 43 40 37 34 31 27 21 14 9 5 4 7 11 15 17 19 21 22 22 22 22 20 22 30 39 44 50 52 49 46 44 43 41 39 38 36 34 32 30 28 26 25
43 42 39 36 34 31 27 22 16 11 7 4 6 9 12 15 17 19 20 20 20 19 18 21 29 37 44 47 48 47 45 43 41 40 39 38 36 35 33 31 29 27 26
42 40 38 36 34 32 28 23 18 14 10 6 5 7 10 13 15 17 18 18 18 17 17 19 27 35 41 43 45 47 45 43 41 40 39 37 36 34 32 31 29 28 27
40 39 38 36 34 31 29 25 21 16 12 9 7 7 9 11 13 15 16 17 16 16 17 19 25 31 36 41 44 44 43 41 39 39 37 35 34 32 31 30 28 28 27
37 37 36 35 33 31 29 26 23 19 14 11 10 9 10 11 13 14 15 15 15 15 17 19 23 29 33 38 41 41 40 38 36 36 35 33 32 31 30 29 28 27 27
35 34 33 33 32 31 30 28 25 21 17 14 13 12 12 12 13 14 14 14 15 17 19 20 23 28 32 36 38 38 37 36 34 33 32 31 30 29 28 28 28 27 27
32 32 31 30 30 29 29 28 26 23 20 18 15 14 14 15 16 16 17 17 19 21 21 22 25 28 31 32 33 33 33 32 31 30 30 29 28 27 27 27 27 27 27
28 29 29 28 27 26 27 27 26 24 22 20 19 17 17 17 18 19 20 21 23 24 25 25 27 29 30 30 29 29 28 28 27 27 26 26 25 25 25 24 24 24 24
25 26 26 26 25 24 24 24 24 23 22 22 21 20 20 20 20 21 23 24 25 26 26 27 27 28 29 28 26 25 25 24 23 23 23 22 22 21 21 21 22 22 22

GEFSGL_500_meanwind_030.txt.gz
Wind_Speed
39 39 40 42 44 45 47 48 49 51 52 53 54 54 55 57 60 62 64 65 64 63 61 58 55 54 52 51 50 48 46 45 43 41 38 35 32 29 26 24 23 22 22
40 41 42 44 46 48 50 51 53 54 55 57 59 60 60 60 62 63 65 67 67 68 66 64 61 58 57 55 53 51 49 48 46 44 41 38 35 32 29 26 24 23 23
41 43 45 47 49 52 54 55 56 57 58 59 60 61 62 63 64 66 67 68 69 70 70 69 67 64 60 59 57 54 52 51 49 47 44 40 37 34 31 29 26 25 24
44 46 48 50 52 54 56 57 57 57 57 57 58 59 61 63 64 66 69 70 71 72 72 72 71 70 67 62 60 58 55 53 51 49 46 43 40 37 34 31 28 26 25
46 49 50 52 53 56 58 59 59 57 56 55 55 56 58 60 63 65 66 70 72 73 74 74 75 74 73 69 64 61 60 57 54 51 49 46 42 39 36 33 30 28 26
48 50 52 54 55 57 57 58 56 54 52 51 51 52 54 56 58 61 63 65 69 72 74 75 76 76 75 74 70 65 62 60 56 53 50 48 45 42 38 35 32 29 27
50 52 54 55 56 56 55 53 51 48 46 45 46 47 49 51 54 56 59 60 61 65 69 73 76 77 76 75 75 71 67 63 61 58 55 50 47 44 41 38 34 31 28
51 52 54 55 55 54 52 49 47 44 41 40 40 41 43 45 49 51 53 55 55 57 61 65 70 74 74 75 75 75 72 68 62 58 56 53 50 47 44 40 36 32 30
51 53 53 54 53 52 49 46 42 38 35 34 33 33 35 38 42 45 47 48 49 50 52 55 60 66 70 72 73 73 72 70 67 61 56 54 53 50 46 42 37 34 30
51 52 53 52 51 50 47 42 38 34 30 26 25 25 27 31 35 39 41 42 43 44 45 46 51 56 60 64 68 70 70 69 67 64 59 56 56 53 48 43 40 36 32
51 52 52 51 50 48 45 40 35 31 26 21 19 18 20 25 30 33 37 37 38 40 40 41 42 46 51 56 60 64 66 67 66 64 62 58 57 55 50 44 40 37 33
50 50 50 49 48 46 42 38 33 28 23 17 13 12 14 19 23 27 31 34 35 35 36 36 37 37 41 47 52 56 59 63 64 64 62 59 57 54 51 46 41 37 34
49 49 49 48 47 44 40 35 31 26 19 14 9 6 9 13 17 23 27 30 31 32 33 33 33 33 35 39 43 48 52 57 58 59 59 56 55 52 50 46 43 39 35
48 47 47 46 45 42 38 34 30 24 17 12 6 2 6 10 14 18 23 26 27 28 28 29 30 31 32 34 37 41 45 50 52 53 55 55 52 50 50 47 43 40 36
46 46 45 44 43 39 35 31 28 23 18 12 6 1 6 9 13 16 19 22 24 25 25 26 28 29 30 31 32 35 40 44 49 50 51 52 51 48 46 46 43 41 38
44 44 43 42 41 38 34 30 26 22 18 12 7 2 5 8 12 15 17 19 21 22 23 25 26 27 28 30 31 32 36 41 45 47 48 49 48 47 46 45 44 42 39
42 42 41 40 39 37 34 29 24 21 18 13 7 2 4 7 10 13 15 17 18 19 22 24 25 26 27 28 30 32 34 39 44 48 48 47 48 47 45 44 43 41 39
40 40 40 39 38 35 32 29 24 20 17 13 8 3 2 5 8 10 13 15 17 19 20 22 24 26 27 28 31 32 34 38 43 48 48 49 49 48 45 43 42 40 38
37 38 38 38 36 34 31 27 23 20 17 13 10 5 2 4 7 9 10 12 15 17 19 20 22 25 27 29 31 33 35 38 43 48 48 49 48 48 46 43 41 40 38
35 36 36 35 35 33 30 27 23 20 17 13 10 7 4 4 5 7 9 11 14 16 17 19 21 23 25 27 30 33 35 39 43 47 48 47 46 45 44 43 41 39 38
33 34 34 33 33 32 29 26 23 19 16 12 10 8 6 5 5 7 8 10 12 14 16 16 17 20 22 25 29 34 38 41 44 47 46 45 44 44 42 41 40 38 36
31 32 32 31 31 30 28 25 22 19 16 13 10 8 7 6 6 6 7 9 10 12 13 14 15 17 20 24 30 37 41 43 46 47 45 45 44 44 42 40 38 36 34
29 30 30 30 29 28 27 25 22 19 17 14 11 9 8 7 7 7 7 8 9 9 10 12 13 16 19 25 32 37 41 44 46 46 45 44 42 41 40 38 36 34 33
26 27 28 28 28 27 26 25 22 19 18 15 13 11 10 9 8 7 7 7 8 9 10 12 15 18 21 27 33 37 41 43 44 43 41 40 38 37 36 35 33 32 31
24 24 25 26 26 25 25 24 22 19 18 17 15 14 13 12 10 9 9 9 9 11 15 17 19 21 24 29 33 35 39 40 39 37 36 35 33 32 33 32 30 29 29
21 21 22 23 23 23 23 23 21 20 18 17 15 15 14 13 12 12 13 14 15 17 19 21 23 25 28 31 32 34 36 36 34 33 32 31 30 29 29 28 27 27 26

GEFSGL_500_meanwind_036.txt.gz
Wind_Speed
40 40 40 40 40 40 41 42 42 43 44 46 47 49 50 52 53 54 55 55 54 54 54 53 53 52 50 48 46 44 43 43 43 40 39 38 38 36 35 33 30 27 25
42 42 41 41 40 40 41 42 43 44 46 48 50 52 53 55 57 59 60 60 60 59 58 57 57 56 55 52 50 48 46 45 45 43 41 40 39 39 38 36 33 31 28
43 43 42 41 41 42 43 44 45 47 49 50 52 54 56 58 60 61 62 63 63 62 62 61 61 60 59 57 54 52 49 48 47 47 45 43 42 41 40 38 36 34 32
44 43 43 42 42 43 45 46 47 48 50 51 53 54 56 58 59 60 61 62 63 62 62 63 63 63 62 61 59 57 54 51 50 49 48 46 44 43 42 40 39 37 35
44 44 43 42 43 44 45 46 48 49 51 52 53 53 54 54 55 56 58 59 60 61 61 62 63 64 64 64 63 61 59 56 52 51 50 49 47 45 44 43 41 40 37
45 44 43 43 44 45 46 47 48 50 50 51 51 50 49 49 49 50 52 53 55 56 57 58 60 63 65 65 64 63 62 60 57 54 51 50 48 47 46 45 43 42 40
45 45 44 44 44 45 46 48 49 49 49 48 47 47 46 45 44 44 45 47 49 50 51 53 56 58 62 64 65 64 64 62 60 57 55 52 51 48 47 46 45 44 42
46 45 44 44 44 45 47 48 49 47 46 45 45 44 43 41 39 38 38 39 42 45 47 50 52 53 56 60 63 64 64 64 62 60 58 55 53 51 49 48 46 45 44
45 44 44 44 44 45 47 48 47 45 44 43 42 40 37 34 32 31 30 31 34 38 42 45 48 49 50 53 58 61 63 64 64 62 60 58 55 51 50 49 47 45 43
45 44 43 43 45 45 46 46 44 42 41 40 38 35 33 30 27 25 24 24 26 30 35 40 44 44 45 47 51 55 59 61 62 62 61 60 57 54 51 49 48 47 44
44 43 43 43 44 45 46 44 42 40 39 38 36 32 29 26 23 20 18 19 21 24 28 33 38 40 42 43 45 49 53 57 59 60 60 60 59 55 51 49 47 45 44
44 43 42 43 44 45 44 42 39 38 37 35 33 30 27 23 19 15 13 14 16 20 24 29 33 36 37 39 41 44 48 52 55 56 58 57 57 56 54 50 47 44 43
43 42 41 42 43 44 42 39 38 37 35 32 30 27 23 19 15 10 8 9 13 17 20 25 28 31 33 35 37 39 42 46 51 54 54 54 53 54 54 51 47 45 42
43 42 41 41 42 42 40 38 37 35 32 31 28 24 20 16 12 8 5 7 11 15 19 22 25 27 28 30 33 35 37 41 45 49 51 52 51 51 51 50 49 46 43
43 41 40 41 42 41 39 37 35 33 31 29 26 21 17 14 10 7 3 5 9 13 16 20 22 23 25 26 29 31 33 36 40 43 46 48 50 48 49 49 48 46 43
42 40 40 40 40 40 38 36 34 32 29 27 24 20 15 12 9 5 1 3 7 11 15 19 20 21 22 24 27 29 31 33 36 40 42 44 46 47 46 46 46 46 44
42 40 39 39 39 38 36 34 32 30 28 25 22 18 14 10 7 4 1 4 8 11 13 15 18 19 20 23 25 27 29 32 34 37 40 42 44 45 45 44 44 43 43
41 40 39 38 37 37 35 34 32 30 27 24 21 17 12 9 6 3 1 4 8 10 12 14 16 17 19 21 23 25 28 30 33 36 39 41 42 43 44 44 43 42 41
40 39 37 37 36 36 35 33 30 28 26 23 19 16 12 8 6 3 1 4 7 9 11 13 15 16 18 20 21 23 26 28 31 36 38 40 42 43 43 43 42 41 41
39 38 36 35 35 35 34 32 29 27 25 22 18 15 11 8 5 3 1 3 6 8 10 13 15 16 17 19 20 22 25 26 29 34 37 40 42 42 43 42 42 42 40
38 36 35 34 34 34 33 31 29 27 24 21 18 15 11 8 5 3 2 3 5 7 10 12 15 16 18 19 20 22 24 25 28 33 36 38 41 43 44 44 44 43 41
37 35 33 32 32 33 32 30 28 26 24 21 19 16 12 9 7 4 3 3 4 6 9 10 12 15 17 19 21 22 23 25 29 32 36 37 39 42 43 43 43 43 42
35 33 32 30 30 31 30 29 26 25 24 22 19 17 14 10 8 6 4 4 4 6 8 11 12 14 15 17 19 21 23 24 28 32 35 37 39 41 41 42 42 42 41
34 32 30 28 28 28 28 27 25 23 23 21 19 18 15 13 11 8 6 3 3 5 7 9 11 12 13 15 17 20 21 23 26 31 33 35 38 39 40 42 42 42 39
33 30 28 26 25 25 26 25 23 22 22 21 19 18 16 14 12 10 8 6 3 3 5 7 9 11 13 15 16 18 18 21 26 29 32 35 37 39 41 41 41 40 36
31 28 26 24 22 22 23 22 22 21 20 20 19 18 17 16 14 12 10 8 5 2 2 4 8 10 13 16 17 18 19 22 26 29 32 33 36 37 39 38 37 36 34

GEFSGL_500_meanwind_042.txt.gz
Wind_Speed
39 39 40 40 40 40 41 41 41 41 41 41 41 42 42 42 43 43 43 44 44 43 43 43 42 42 41 41 41 41 41 39 38 36 36 38 40 41 42 42 41 40 39
39 40 41 41 42 42 42 42 42 41 41 41 41 41 41 42 43 44 45 46 47 47 47 47 47 47 47 46 45 43 43 42 41 39 38 40 42 44 44 44 43 42 41
41 41 42 43 43 44 43 43 42 41 41 41 41 41 41 43 44 45 47 48 49 49 50 51 51 51 51 51 50 49 47 45 43 43 42 42 44 46 47 47 46 44 43
42 43 43 44 44 44 43 42 41 41 40 40 40 41 42 43 45 46 48 49 50 51 52 52 53 54 54 55 54 54 52 50 48 46 46 44 46 48 49 48 47 46 44
44 44 45 45 45 44 43 42 41 40 40 40 41 42 43 44 45 46 47 48 50 51 52 53 54 55 56 57 57 58 57 55 53 50 49 48 47 49 49 50 50 48 47
45 46 46 46 45 44 43 42 41 40 40 41 42 42 42 43 44 45 46 47 48 49 50 51 53 54 55 58 59 61 61 60 58 56 54 53 50 50 50 51 52 50 48
46 47 47 46 45 44 43 42 40 40 41 42 41 41 41 42 43 43 43 44 44 45 47 49 50 51 52 56 59 62 64 63 62 60 58 57 54 52 52 52 53 53 51
47 48 48 47 46 44 43 41 41 41 41 41 40 40 40 40 40 40 40 40 41 41 43 45 46 48 49 52 57 60 63 65 64 63 62 60 59 55 54 53 53 53 53
48 48 48 47 46 44 42 41 41 41 40 40 39 39 39 38 38 37 37 36 36 37 38 40 42 43 46 49 53 57 61 65 67 66 66 65 64 60 57 56 55 54 53
48 49 49 48 46 44 42 42 41 40 39 39 38 38 37 36 34 33 33 32 32 32 33 34 36 39 42 46 49 53 58 63 66 68 68 67 66 64 61 58 56 54 52
48 49 49 48 46 44 42 42 41 40 39 38 37 37 35 33 31 30 29 27 26 26 26 27 30 33 37 42 46 49 54 60 64 67 69 69 68 67 63 59 57 56 53
48 49 49 48 46 44 43 41 41 40 38 37 37 35 33 31 29 27 26 23 21 20 19 20 23 28 33 37 42 44 49 56 61 64 66 68 68 67 65 61 58 57 55
48 49 48 48 46 44 42 41 41 39 37 36 35 33 31 29 27 24 22 19 18 16 14 14 17 22 27 33 38 41 44 50 55 59 63 65 67 67 65 63 59 56 55
49 49 48 47 46 44 42 41 40 38 36 35 33 31 29 27 24 21 18 17 14 11 8 8 12 17 23 29 35 39 42 46 50 54 59 62 65 66 65 63 60 57 54
49 49 48 47 45 43 41 40 40 38 36 34 32 29 27 25 22 19 16 14 11 7 6 6 9 14 20 25 30 35 38 42 46 50 55 58 61 63 63 62 60 58 54
48 48 47 46 45 43 40 40 39 37 36 34 31 28 27 23 20 17 14 11 8 6 5 5 8 12 17 22 28 32 36 39 43 47 51 54 57 60 60 59 58 56 54
47 47 46 45 44 42 39 38 37 35 35 33 30 27 25 22 19 15 12 10 7 4 3 4 7 11 15 20 24 28 32 37 40 44 47 50 53 56 57 57 56 55 52
46 46 45 44 43 40 38 37 35 33 33 32 30 27 24 21 18 15 11 9 6 3 2 4 6 10 13 17 22 26 30 34 38 42 44 47 51 53 55 55 55 55 51
45 44 44 43 41 39 36 35 34 32 31 31 29 26 23 20 17 15 12 8 5 4 4 5 7 10 13 16 20 24 28 31 35 38 42 46 49 51 53 54 54 54 51
45 43 42 41 40 37 35 33 32 31 30 30 28 25 22 19 16 14 11 8 5 4 5 7 8 10 12 15 18 22 26 30 33 35 40 45 48 49 51 53 53 52 51
43 41 40 39 38 36 33 31 30 29 28 28 27 25 22 19 16 14 11 9 6 4 5 6 8 10 12 15 17 21 24 27 30 33 37 42 46 48 50 52 52 52 52
41 39 38 37 35 34 31 30 28 27 27 27 26 24 22 19 16 14 11 9 6 5 5 7 8 10 11 13 16 19 22 25 28 31 35 39 44 47 50 52 52 52 51
39 37 35 34 33 31 29 28 27 26 25 24 24 23 21 19 17 14 11 9 7 5 4 6 8 10 11 13 16 18 20 24 26 29 33 37 41 45 48 50 51 50 49
37 34 33 32 31 29 27 25 24 24 23 22 22 22 21 20 17 13 11 9 7 4 3 4 7 10 11 13 15 17 19 23 25 28 30 34 39 43 46 48 49 48 47
34 33 31 30 28 27 25 23 22 21 21 20 20 21 20 19 18 15 12 9 5 2 2 3 5 8 11 13 15 17 19 22 25 28 30 33 37 41 44 45 46 47 47
33 31 29 28 26 24 22 20 19 19 18 18 19 20 19 18 18 16 14 10 5 3 2 3 5 6 9 11 13 16 18 21 23 26 29 32 36 39 41 43 44 46 46

GEFSGL_500_meanwind_048.txt.gz
Wind_Speed
31 31 32 33 34 35 36 37 38 39 40 40 39 39 39 38 38 37 37 37 37 37 38 39 40 41 42 43 43 43 43 42 41 41 41 41 42 41 41 42 43 45 45
33 33 34 35 36 37 38 39 41 41 41 41 40 39 39 38 37 36 36 36 36 37 38 39 40 41 42 43 44 44 45 44 43 43 43 42 42 43 43 43 44 47 46
35 35 37 38 39 40 40 42 43 43 43 42 41 40 39 38 37 37 37 37 37 37 38 39 40 41 42 44 45 46 47 47 45 45 45 45 44 44 43 45 45 47 49
37 37 38 40 41 41 42 44 44 45 44 43 42 41 40 39 38 38 37 37 37 37 38 39 40 42 43 45 46 47 48 49 48 47 47 48 46 45 45 45 45 47 49
38 39 40 41 42 43 44 45 46 46 45 43 43 42 41 40 39 38 37 36 36 37 38 39 40 42 44 46 47 49 50 51 51 49 50 50 49 47 47 46 47 47 48
40 40 41 42 43 44 45 46 47 47 46 44 44 42 41 41 40 38 37 36 36 37 38 39 41 42 44 46 48 50 52 53 54 53 52 52 51 50 49 47 47 48 47
41 41 42 43 44 46 46 47 47 47 46 45 44 42 41 41 40 38 37 36 36 37 38 40 41 42 43 45 47 49 52 54 56 57 56 55 55 53 51 50 48 48 49
42 42 43 44 45 47 47 48 48 47 46 44 43 42 41 40 39 38 38 37 36 36 37 38 40 41 43 44 46 48 51 54 57 59 59 58 58 57 54 52 51 49 49
42 43 44 45 46 48 48 49 48 47 46 44 43 42 41 40 39 38 37 36 35 35 36 37 37 38 40 42 44 46 49 52 56 60 62 62 61 60 58 56 53 51 50
43 44 45 46 47 48 49 49 49 47 45 44 42 42 40 39 38 38 37 36 34 34 34 35 35 35 37 40 41 43 45 50 55 59 63 65 64 63 61 59 55 53 51
44 46 47 48 49 49 49 50 49 47 45 43 42 41 40 38 38 37 35 34 33 32 31 31 31 32 34 36 38 40 43 48 52 57 61 64 66 66 65 62 59 55 53
46 47 48 49 50 50 50 49 48 46 44 42 41 40 39 38 37 35 34 33 31 30 28 27 27 28 29 31 33 36 40 45 49 54 59 63 65 67 67 66 63 59 56
48 49 50 50 50 50 50 49 47 45 43 40 39 39 38 37 36 34 31 30 29 27 26 25 24 24 25 26 28 32 36 40 45 50 55 60 63 66 67 67 66 62 58
50 51 51 51 51 51 50 48 46 44 42 40 38 38 37 36 35 32 30 28 26 24 23 22 21 20 20 21 23 27 31 36 41 46 51 56 61 65 67 67 66 65 61
53 53 53 52 51 49 48 47 45 43 41 38 37 37 36 34 33 30 28 26 24 22 21 19 17 16 16 16 17 19 23 30 36 41 46 51 57 62 65 67 67 66 62
55 55 54 52 50 48 46 45 44 42 40 38 37 36 35 33 31 29 27 25 22 21 19 17 15 14 12 12 11 13 18 23 30 37 42 46 51 57 62 66 67 66 63
57 55 53 51 48 46 45 43 41 40 38 38 37 35 34 33 30 28 27 24 21 20 18 16 14 12 11 9 9 10 13 18 24 31 37 41 45 51 57 62 65 65 62
58 55 52 49 47 44 43 41 40 37 36 35 35 34 33 31 30 28 26 24 21 19 16 14 12 11 9 7 7 9 12 16 21 27 32 36 40 45 51 56 61 64 62
58 54 51 47 45 42 41 39 38 37 35 34 33 32 31 30 29 27 25 23 20 17 16 14 12 10 8 7 7 7 10 14 18 24 28 31 35 40 44 49 55 59 60
56 53 49 45 42 40 39 37 36 35 34 33 32 31 30 29 28 26 24 22 19 17 15 14 12 10 9 8 8 8 9 13 17 20 25 29 31 35 40 45 50 54 56
54 50 46 42 40 38 37 36 35 34 32 31 31 30 29 28 27 25 23 22 18 15 14 13 11 10 9 8 9 10 10 13 16 20 23 26 29 33 37 41 45 50 52
50 46 43 40 37 36 35 34 33 32 30 30 29 29 28 27 25 24 23 21 18 14 13 11 9 9 9 9 10 11 12 13 16 19 22 25 27 30 34 39 42 45 48
46 43 41 38 35 34 33 32 31 30 28 27 27 28 27 26 24 23 22 20 17 14 12 9 8 7 8 9 10 12 13 14 16 19 21 24 26 28 31 36 41 43 45
43 40 38 35 33 32 31 29 29 27 26 25 26 26 26 25 23 22 21 18 16 13 10 9 7 7 7 8 10 11 13 15 17 18 21 23 24 27 30 34 39 41 43
39 36 34 32 30 29 27 27 26 25 23 23 23 24 24 23 22 21 20 18 15 12 10 7 6 5 5 6 8 10 12 14 16 17 20 23 24 26 29 33 38 40 42
35 32 30 29 27 25 24 24 23 22 20 20 21 22 22 22 21 20 19 17 14 11 8 6 5 4 4 5 7 9 11 13 16 17 19 21 24 26 28 32 36 39 41

GEFSGL_500_meanwind_054.txt.gz
Wind_Speed
22 23 24 25 25 26 27 28 29 30 31 31 33 34 35 36 36 36 36 35 35 36 36 36 37 39 40 41 42 43 44 45 46 47 48 47 47 47 46 46 45 45 45
24 25 26 27 28 29 29 30 31 32 33 35 36 37 38 38 38 38 38 37 37 37 37 37 37 38 39 40 41 43 44 45 46 46 48 48 47 47 47 47 46 46 45
26 27 28 29 30 30 31 32 33 35 36 38 39 40 40 40 40 40 39 39 38 37 37 37 37 38 39 40 40 42 43 44 46 46 47 48 48 48 48 46 46 46 47
28 29 30 31 32 32 33 35 36 37 39 40 42 42 42 43 42 41 40 39 38 37 37 36 36 37 37 39 40 41 42 44 45 46 48 49 49 49 49 48 46 47 47
30 31 31 32 33 34 35 37 38 40 41 43 44 44 44 44 43 42 41 39 38 37 36 36 36 36 37 38 39 40 42 43 44 46 47 49 50 50 50 50 48 47 47
31 32 32 33 34 35 37 39 41 42 44 45 46 46 46 45 44 42 40 38 37 36 36 35 35 35 36 37 38 40 41 43 44 46 47 49 50 51 52 52 51 49 47
32 33 33 34 35 37 40 42 43 44 46 47 47 47 46 45 43 41 39 37 36 35 35 35 35 35 36 36 37 39 41 42 44 46 47 49 50 51 52 53 53 50 48
33 33 34 35 37 40 43 45 46 47 48 49 48 47 45 43 41 39 37 35 34 34 34 34 35 35 36 36 37 38 40 41 43 46 47 49 52 53 53 53 53 52 51
34 34 35 37 40 43 45 47 48 49 50 50 48 46 43 41 40 38 36 34 33 33 33 34 34 33 34 35 36 36 38 40 43 45 47 49 52 53 54 54 54 53 52
35 36 38 40 42 45 48 49 50 50 50 49 47 44 42 40 38 37 35 33 33 33 33 33 32 31 32 33 34 36 37 39 42 44 46 49 51 54 56 56 56 56 54
37 38 41 43 45 48 50 51 51 51 50 48 45 42 40 38 36 35 33 32 32 32 31 31 30 30 30 32 33 34 35 38 41 43 46 48 50 53 56 57 57 57 56
39 42 44 46 49 51 52 52 53 53 50 47 43 40 38 37 35 33 32 31 31 31 30 29 29 29 29 30 30 32 33 35 37 40 43 46 49 51 54 57 58 58 58
43 45 47 49 50 53 54 54 54 53 49 45 42 39 37 35 34 33 32 31 31 30 29 28 28 28 28 28 28 29 30 31 34 37 40 43 47 50 53 56 58 60 60
46 48 49 51 52 55 55 55 53 51 47 44 41 38 36 34 34 32 31 30 30 29 28 27 27 26 26 25 26 26 27 28 30 33 37 40 44 47 51 54 56 59 60
49 50 52 54 55 56 56 55 52 49 45 42 40 37 35 33 32 31 31 30 29 28 27 26 25 24 24 24 24 24 25 26 28 30 33 37 41 44 48 52 54 58 60
52 53 54 55 56 57 55 52 49 46 43 40 39 37 34 32 31 30 30 29 28 28 26 25 24 24 24 23 22 23 23 24 25 28 31 34 38 42 45 49 52 55 58
55 56 56 56 57 56 53 49 47 45 41 39 38 36 34 32 31 30 29 28 28 27 25 24 23 22 22 21 21 21 20 21 22 25 27 31 35 40 43 46 49 54 57
57 57 57 57 56 53 50 47 45 43 40 37 36 35 33 32 31 30 28 27 27 25 24 23 22 21 20 19 19 20 19 19 20 21 24 26 31 36 41 44 47 50 55
59 58 56 54 52 49 47 45 43 41 38 35 34 34 33 31 30 28 28 27 26 24 23 22 21 20 19 18 18 18 18 18 17 18 20 23 27 32 38 42 44 47 51
58 56 54 51 49 47 45 43 42 38 35 34 33 32 31 30 28 27 26 25 25 24 22 21 20 19 18 17 16 16 16 16 16 16 18 21 25 29 34 39 42 44 48
57 54 51 49 47 45 43 41 38 35 33 31 31 30 29 28 27 25 25 24 24 23 21 21 20 19 17 16 16 16 16 16 16 16 17 20 24 27 31 36 39 42 45
55 52 49 47 45 42 40 38 35 32 30 29 28 28 27 27 25 24 24 24 22 21 20 19 18 16 15 14 14 14 14 15 15 16 18 19 23 26 28 33 38 40 42
53 50 47 44 42 39 37 35 32 29 28 27 25 25 25 24 24 23 23 22 21 19 18 16 15 14 12 11 10 11 12 14 15 16 17 19 21 25 27 31 35 37 40
51 47 45 42 40 37 35 32 29 27 25 24 23 23 23 22 22 23 22 21 20 18 16 15 13 12 10 9 10 10 11 12 14 15 17 19 21 24 26 29 32 36 39
48 44 42 39 36 33 31 29 26 24 23 21 21 21 21 20 21 22 20 19 18 17 15 13 12 11 9 8 8 7 8 11 13 16 17 19 22 24 25 28 31 33 37
43 40 38 35 31 29 27 25 23 21 20 20 20 20 19 19 19 19 18 17 16 15 13 12 10 9 8 7 6 7 8 10 12 16 18 20 22 25 27 28 30 31 34

GEFSGL_500_meanwind_060.txt.gz
Wind_Speed
19 21 22 23 24 24 24 24 25 25 26 27 28 29 31 32 33 34 35 36 37 38 39 39 39 40 41 41 41 42 42 42 41 41 43 44 44 44 44 44 44 45 45
21 22 23 24 25 25 25 25 26 26 27 28 30 32 33 35 36 37 38 39 40 40 41 42 42 42 42 42 43 43 43 43 43 42 43 44 45 45 45 46 46 45 45
22 23 24 25 25 26 27 27 27 28 29 31 33 34 36 38 39 40 41 42 42 43 43 43 42 42 41 42 42 42 42 42 42 42 42 44 45 46 46 46 47 46 46
23 24 26 26 27 27 28 28 29 30 32 34 35 37 39 41 42 43 44 44 44 44 43 42 41 40 40 39 39 40 40 41 41 41 41 42 44 45 45 46 46 46 46
25 26 28 28 29 30 30 31 31 33 34 36 37 39 41 43 44 45 45 45 44 43 42 40 39 38 37 37 36 37 38 39 40 40 40 41 42 43 44 45 46 46 46
27 28 29 30 31 32 32 33 33 35 36 38 40 42 44 46 46 46 46 44 43 41 40 38 37 36 36 35 35 35 36 36 37 38 39 39 40 41 43 44 45 46 46
28 30 30 31 32 33 34 35 36 38 39 41 43 45 46 48 48 47 46 44 42 40 38 37 36 35 34 33 33 33 34 34 36 36 37 38 39 40 41 42 43 45 45
30 31 32 33 34 36 37 38 40 41 43 45 45 46 48 49 48 47 45 43 41 39 37 35 34 34 33 32 32 32 33 33 34 35 35 36 38 39 41 41 42 43 44
32 33 34 35 37 39 40 41 42 44 45 46 46 48 49 49 48 47 45 42 40 37 35 34 34 33 33 32 33 32 32 32 33 34 34 35 36 38 40 41 42 43 43
33 34 35 37 40 42 43 44 45 46 47 47 47 49 50 49 48 46 44 41 39 36 35 34 34 32 32 32 33 32 32 33 33 33 34 34 35 37 38 40 41 43 43
36 37 38 41 42 43 45 46 47 48 48 49 50 51 50 49 48 45 43 41 38 36 34 34 33 32 31 32 32 32 32 32 32 32 32 33 34 36 38 39 40 42 43
40 41 42 44 45 47 48 47 49 50 51 51 52 52 50 49 47 43 41 40 38 36 35 34 33 32 32 31 31 31 32 31 31 31 32 32 33 34 36 38 39 41 43
43 45 46 48 49 49 49 50 52 53 53 53 53 53 51 49 47 43 40 39 38 36 34 34 33 32 32 31 31 30 30 29 30 30 30 30 31 32 34 36 38 40 42
46 48 50 52 51 51 51 52 53 54 55 55 54 53 50 47 46 43 41 39 37 35 34 33 33 32 31 31 30 30 29 29 29 29 30 30 30 31 32 34 36 38 41
49 51 52 53 54 54 53 54 55 55 54 53 53 52 49 46 44 42 40 39 37 36 34 33 32 31 30 29 29 29 29 28 28 28 28 29 29 30 32 33 35 37 39
51 53 54 55 55 55 56 56 55 55 53 51 51 49 47 45 43 41 39 38 37 35 33 32 31 30 29 28 28 27 27 27 27 27 27 28 28 29 30 31 33 35 37
53 54 55 56 57 57 58 57 57 55 54 51 49 47 45 43 41 39 38 36 35 33 32 31 30 29 28 27 27 26 26 26 26 25 25 26 26 27 28 29 32 34 36
55 56 57 58 58 58 58 58 57 55 54 51 48 46 43 41 39 38 36 35 33 32 31 30 29 28 28 27 26 26 26 25 25 24 24 24 23 24 25 27 29 32 35
57 58 59 60 60 60 59 59 57 55 53 49 46 43 41 39 37 36 34 33 32 30 30 29 28 27 27 27 26 26 26 25 25 25 24 23 23 23 23 25 27 29 33
60 61 61 61 62 61 60 59 57 54 51 47 44 42 39 37 35 34 32 31 30 29 29 28 28 27 27 27 26 26 25 25 24 24 23 22 22 23 23 24 26 28 31
63 63 63 63 63 62 60 58 55 52 48 45 41 38 36 35 34 32 30 30 29 28 28 28 27 27 27 26 25 25 24 23 22 21 21 22 22 22 23 24 25 27 30
65 65 65 64 63 61 58 55 51 48 44 41 37 35 33 32 31 30 29 29 28 28 28 28 27 27 26 25 24 24 23 22 21 21 21 21 21 22 22 23 24 26 29
66 65 64 63 60 57 54 50 46 42 40 37 34 32 30 30 28 27 27 27 27 28 27 27 26 26 25 24 23 23 21 21 20 20 20 20 20 21 22 23 24 25 28
63 62 60 57 54 51 47 44 40 36 35 33 30 28 27 26 26 25 25 25 26 25 25 25 24 24 23 22 21 21 20 19 19 18 18 18 18 19 20 22 23 25 27
57 54 52 49 45 41 37 35 32 30 29 26 25 25 25 24 24 24 24 23 23 23 23 22 22 21 21 20 19 18 18 18 18 17 17 17 17 18 19 21 22 23 26
49 46 43 39 35 31 29 27 24 23 22 22 22 22 22 21 21 21 22 21 21 21 21 20 20 20 19 18 18 17 17 17 16 15 15 15 15 17 18 19 21 22 24